Address 0x5ea26ee74728f1d76fa00847fc54265a253a606b 1

Txn Hash
Block
From
To
Value [Txn Fee]
0x84087cd8ed2592eb4d9483aa37c97befec4dd2aa0c41a7a6a94b93a1926d4cfa106450702021-07-16 15:21:5218 days 22 hrs ago0x5ea26ee74728f1d76fa00847fc54265a253a606bOUT 0x25dbeead8a106ded522831e11bef339141d9aa940 BNB0.00173747
0xe15801308b5522889fb617be474cb815386c53bd846e4f1c4af4ec88688a0800106450662021-07-16 15:21:4018 days 22 hrs ago0x5ea26ee74728f1d76fa00847fc54265a253a606bOUT 0x25dbeead8a106ded522831e11bef339141d9aa940 BNB0.0017434
0xec3ac76a61abe14dc3e4fc0fc801af4a732ed8e70060cef11fc3abe1bb8f3b14106448012021-07-16 15:08:2518 days 22 hrs ago0x5ea26ee74728f1d76fa00847fc54265a253a606bOUT 0x25dbeead8a106ded522831e11bef339141d9aa940 BNB0.001223
0x78344c6ab9526410000e1aa3865e32b67a74a30d67042e22273f272e89d8d404106448002021-07-16 15:08:2218 days 22 hrs ago0x5ea26ee74728f1d76fa00847fc54265a253a606bOUT 0x25dbeead8a106ded522831e11bef339141d9aa940 BNB0.00141478
0x06de3009428441e3235feb8a1a837f2956fa2c7ba12f70035d7f6fe7ec2d0698106447982021-07-16 15:08:1618 days 22 hrs ago0x5ea26ee74728f1d76fa00847fc54265a253a606bOUT 0x25dbeead8a106ded522831e11bef339141d9aa940 BNB0.0015605
0xfece754ad16bfc1efd4adf222bf1fc242fca95b1891d5b88266615fac043709b106447922021-07-16 15:07:5818 days 22 hrs ago0x5ea26ee74728f1d76fa00847fc54265a253a606bOUT 0xd859bc152d041b4b6486e55f8635473b86f3b4ee0 BNB0.00044878
0x63aaeb23100fb888b115da2376ee384022f6b57a7a8ec9009cf0579d89b99c0b106380482021-07-16 9:30:1019 days 4 hrs ago0x5ea26ee74728f1d76fa00847fc54265a253a606bOUT 0xd859bc152d041b4b6486e55f8635473b86f3b4ee0 BNB0.00044878
0x17dde7f50851db9e170e8e257bf50ce8bfcb76b07ca3e995c5eb0d7dc6b00ae0106210192021-07-15 19:18:2519 days 18 hrs ago0x5ea26ee74728f1d76fa00847fc54265a253a606bOUT 0x4b10681d217b6dc2675bc7fbfe900590b4306f130 BNB0.00124044
0xa2081dbeb3f6943fbcb3c1ce61aabb415afb28f0fe03ef4779f97e7cd9ec2a10106129192021-07-15 12:33:2520 days 1 hr ago0x5ea26ee74728f1d76fa00847fc54265a253a606bOUT 0x4b10681d217b6dc2675bc7fbfe900590b4306f130 BNB0.0022311
0x2835024189166474ba1651f5207f12434966eb9327c20ed2354cdbf990a64134106128702021-07-15 12:30:5820 days 1 hr ago0x5ea26ee74728f1d76fa00847fc54265a253a606bOUT 0x4b10681d217b6dc2675bc7fbfe900590b4306f130 BNB0.00124098
0xbae3f5900b51f69d91f12cf2d0187d2eee99dc444dfbda7de291cb4239002062106123572021-07-15 12:05:1920 days 1 hr ago0x5ea26ee74728f1d76fa00847fc54265a253a606bOUT 0x4b10681d217b6dc2675bc7fbfe900590b4306f130 BNB0.00138991
0xdd9b0b2ee6ce62c579c2d2c89ea0d90fca1e10e9a7a3e54b8726649f0ea32635105509462021-07-13 8:08:5722 days 5 hrs ago0x5ea26ee74728f1d76fa00847fc54265a253a606bOUT 0xd859bc152d041b4b6486e55f8635473b86f3b4ee0 BNB0.00044878
0x5a9148df16ecf6a71a97860602ad72de0f88ecf325ffe8f88a670cbdee8585ee105274812021-07-12 12:35:2923 days 1 hr ago0x5ea26ee74728f1d76fa00847fc54265a253a606bOUT 0x916559f8f0db61d2c05776e01b4b522a37a9e6380 BNB0.00114387
0xac4d2c92fd4eb62099a2d93c526c1cd53e7b9cdfcfc4836160399de61858c98e105233222021-07-12 9:07:1023 days 4 hrs ago0x5ea26ee74728f1d76fa00847fc54265a253a606bOUT 0x916559f8f0db61d2c05776e01b4b522a37a9e6380 BNB0.00114387
0x8d03702f5000315013219ac3b1f0c5c9c521981b0c3976c6143764739347e011105224232021-07-12 8:22:1323 days 5 hrs ago0x5ea26ee74728f1d76fa00847fc54265a253a606bOUT 0x916559f8f0db61d2c05776e01b4b522a37a9e6380 BNB0.00114387
0x7d21a04120f2813c140eecf989f4eff5f0db0b5fa95915e0bb4daabce8019e41105222382021-07-12 8:12:5823 days 5 hrs ago0x5ea26ee74728f1d76fa00847fc54265a253a606bOUT 0x916559f8f0db61d2c05776e01b4b522a37a9e6380 BNB0.00114387
0xbc00794e609a91e64071ce93263cd29454ba685fb974d9508d64d1a848a42c5e105022022021-07-11 15:28:5623 days 22 hrs ago0x5ea26ee74728f1d76fa00847fc54265a253a606bOUT 0x916559f8f0db61d2c05776e01b4b522a37a9e6380 BNB0.00114387
0xf496d6106979c1a6c336691679a78335be0963ca89c2d3919575561c8e7aded4104402362021-07-09 11:50:3426 days 1 hr ago0x5ea26ee74728f1d76fa00847fc54265a253a606bOUT 0x916559f8f0db61d2c05776e01b4b522a37a9e6380 BNB0.00115906
0xea4308cd7c53d621773609338807d19f547df5e56b263e029c3b8a459c3d6231104400362021-07-09 11:40:3426 days 2 hrs ago0x5ea26ee74728f1d76fa00847fc54265a253a606bOUT 0x916559f8f0db61d2c05776e01b4b522a37a9e6380 BNB0.00115528
0x833fcfc55b50134f218406d835a806f21530df637bae9786cd38dfce562c5bff104398352021-07-09 11:30:3126 days 2 hrs ago0x5ea26ee74728f1d76fa00847fc54265a253a606bOUT 0x916559f8f0db61d2c05776e01b4b522a37a9e6380 BNB0.0016014
0x26f8989a60cd1a7c8ca34b1b5076d41ef7ea88e8a13fdd9ee7ccef693ad8552b104396292021-07-09 11:20:1326 days 2 hrs ago0x5ea26ee74728f1d76fa00847fc54265a253a606bOUT 0x916559f8f0db61d2c05776e01b4b522a37a9e6380 BNB0.00135139
0x6ecefa8ec2f8296a34898f379aba0c6b0509d11269048fb18f664acd208da6ad104395642021-07-09 11:16:5826 days 2 hrs ago0x5ea26ee74728f1d76fa00847fc54265a253a606bOUT 0x5b8957ca82dce78e589e897fcb70c1028c60f3640 BNB0.00160877
0x19e6bb220231b3529d662a6380df11dd00ee25edff7ad3e6a8e43f45fd6d64aa104395522021-07-09 11:16:2226 days 2 hrs ago0x5ea26ee74728f1d76fa00847fc54265a253a606bOUT 0x1138ebb3101f557b28326a28b6f192c7fecc95f70 BNB0.00044406
0x84d81975b1767dfa73eb4f9b6f991a41a3ab32b7650b75eff4a67c8ec1b53329104395072021-07-09 11:14:0726 days 2 hrs ago0x5ea26ee74728f1d76fa00847fc54265a253a606bOUT 0xd859bc152d041b4b6486e55f8635473b86f3b4ee0 BNB0.00044878
0xbe5fd4a0faa8ff4db55a35711a5aed2dfc027758b63b0ed665159f8126e8407e101821142021-06-30 9:59:1735 days 3 hrs ago0x5ea26ee74728f1d76fa00847fc54265a253a606bOUT 0x1138ebb3101f557b28326a28b6f192c7fecc95f70 BNB0.00044394
[ Download CSV Export 
Latest 3 internal transactions
Parent Txn Hash Block From To Value
0x03083abdf7533105b2ff4210b4547a011a01e16cd9c13e1b8d46a57f96b66ee0101544212021-06-29 9:59:3936 days 3 hrs ago 0x354bc1cfe9959b96bed409859a726263c6c56c810x5ea26ee74728f1d76fa00847fc54265a253a606b0.004905064034157359 BNB
0x69973018f33f61d44d89347c67e760e962385eefb9d3c2f756af2e0fdee9704387226222021-05-10 14:55:5785 days 22 hrs ago 0x354bc1cfe9959b96bed409859a726263c6c56c810x5ea26ee74728f1d76fa00847fc54265a253a606b1 wei
0x378c4a7064731cd404e80d7aac0a85c42709e668a0906dc821c7afa001c46fac77393002021-04-06 11:21:12120 days 2 hrs ago 0x9f337dc10f14402287449de5444428a98ac63fc90x5ea26ee74728f1d76fa00847fc54265a253a606b0.000000002184203236 BNB
[ Download CSV Export 
Loading

Contract Name:
0 BNB

Compiler Version
0

Optimization Enabled:
0 BNB

Other Settings:
-NA-
Block Transaction Gas Used Reward
Age Block Fee Address BC Fee Address Voting Power Jailed Incoming
Block Uncle Number Difficulty Gas Used Reward
Loading